This demonstration page uses our WeatherBlox Daily Observations layout. Learn more.

Left ArrowRight Arrow

39.29038, -76.61219

Hourly Observations for August 29, 2015

Temp ( °F °C ) Dew Point ( °F °C ) Humidity (%) Winds ( mph kmh ) Pressure ( in mb ) Visibility ( mi km ) Precip ( " mm )
12:54 am 00:54 undefined 73 22.8 59 15 62 62 undefined N/A 30.21 1023 N/A 0.00 0.00
1:54 am 01:54 undefined 71 21.7 58 14.4 63 63 undefined N/A 30.20 1023 N/A 0.00 0.00
2:54 am 02:54 undefined 71 21.7 58 14.4 63 63 undefined N/A 30.19 1023 N/A 0.00 0.00
3:54 am 03:54 undefined 70 21.1 59 15 68 68 undefined N/A 30.19 1023 N/A 0.00 0.00
4:54 am 04:54 undefined 69 20.6 58 14.4 68 68 undefined N/A 30.19 1023 N/A 0.00 0.00
5:54 am 05:54 undefined 69 20.6 58 14.4 68 68 undefined N/A 30.19 1022 N/A 0.00 0.00
6:54 am 06:54 undefined 68 20 59 15 73 73 undefined N/A 30.21 1023 N/A 0.00 0.00
7:54 am 07:54 undefined 71 21.7 60 15.6 68 68 undefined N/A 30.22 1023 N/A 0.00 0.00
8:54 am 08:54 undefined 73 22.8 60 15.6 64 64 undefined N/A 30.22 1023 N/A 0.00 0.00
9:54 am 09:54 undefined 77 25 59 15 54 54 undefined N/A 30.21 1023 N/A 0.00 0.00
10:54 am 10:54 undefined 80 26.7 59 15 49 49 undefined N/A 30.21 1023 N/A 0.00 0.00
11:54 am 11:54 undefined 83 28.3 60 15.6 46 46 undefined N/A 30.20 1023 N/A 0.00 0.00
12:54 pm 12:54 undefined 84 28.9 60 15.6 44 44 undefined N/A 30.17 1022 N/A 0.00 0.00
1:54 pm 13:54 undefined 84 28.9 61 16.1 46 46 undefined N/A 30.15 1021 N/A 0.00 0.00
2:54 pm 14:54 undefined 83 28.3 64 17.8 53 53 undefined N/A 30.13 1020 N/A 0.00 0.00
3:54 pm 15:54 undefined 83 28.3 65 18.3 55 55 undefined N/A 30.11 1020 N/A 0.00 0.00
4:54 pm 16:54 undefined 84 28.9 65 18.3 53 53 undefined N/A 30.10 1019 N/A 0.00 0.00
5:54 pm 17:54 undefined 83 28.3 64 17.8 53 53 undefined N/A 30.10 1019 N/A 0.00 0.00
6:54 pm 18:54 undefined 81 27.2 64 17.8 57 57 undefined N/A 30.10 1019 N/A 0.00 0.00
7:54 pm 19:54 undefined 79 26.1 64 17.8 60 60 undefined N/A 30.10 1019 N/A 0.00 0.00
8:54 pm 20:54 undefined 78 25.6 63 17.2 60 60 undefined N/A 30.11 1020 N/A 0.00 0.00
9:54 pm 21:54 undefined 77 25 63 17.2 62 62 undefined N/A 30.13 1020 N/A 0.00 0.00
10:54 pm 22:54 undefined 76 24.4 62 16.7 62 62 undefined N/A 30.13 1020 N/A 0.00 0.00
11:54 pm 23:54 undefined 75 23.9 62 16.7 64 64 undefined N/A 30.13 1020 N/A 0.00 0.00

Powered by AerisWeather